www.pogodaiklimat.ru

Погода и климат >> Архив погоды >> Россия >> Якутия >> Томпо


ПОГОДА в Томпо

  • Прогноз погоды в Томпо
  • Монитор погоды в Томпо
  • Климат города

АРХИВ ПОГОДЫ в Томпо

Время (UTC), дата Ветер
(напр.,м/с)
 
Видим.   Явления Облачность Т
(С)
Тd
(С)
f
(%)
Тe
(С)
Тes
(С)
Комфортность P
(гПа)
Po
(гПа)
Тmin
(С)
Tmax
(С)
R
(мм)
R24
(мм)
S
(см)
09 19.09 СЗ 2 50 км 4/0
[Ac trans Cc]
+6.6 -0.7 60 +5 +5 1010.4 962.2 +10.1
12 19.09 штиль 0 50 км 4/3 1000 м
[Sc Ac trans]
-0.3 -3.0 82 -1 -1 1012.8 963.2
15 19.09 штиль 0 50 км 8/3 1000 м
[Sc Ac trans Ci fib]
+1.5 -2.0 78 +1 +1 1012.6 963.4
18 19.09 штиль 0 50 км 9/8 1000 м
[Sc Ac trans]
+1.6 -2.5 74 +1 +1 1013.1 963.9
21 19.09 С 1 50 км 10/10 1000 м
[Sc]
+2.6 -2.3 70 +1 +1 1013.1 964.1 -0.5
00 20.09 СЗ 1 50 км 10/10 1000 м
[Sc]
+3.6 -2.7 63 +3 +3 1013.2 964.4
03 20.09 СЗ 1 50 км 10/10 1000 м
[Sc]
+4.7 -2.3 60 +4 +4 1013.2 964.5
06 20.09 штиль 0 50 км 9/6 1000 м
[Sc Ac trans]
+6.5 -2.2 54 +6 +7 1012.7 964.4
09 20.09 штиль 0 50 км 9/9 1000 м
[Sc]
+6.5 -1.5 57 +6 +6 1012.9 964.6 +7.0
12 20.09 штиль 0 50 км 9/9 1000 м
[Sc]
+3.8 -1.1 70 +3 +3 1014.4 965.5
15 20.09 штиль 0 50 км 8/4 1000 м
[Sc Ac trans]
+1.6 -1.8 78 +1 +1 1015.4 966.1
18 20.09 штиль 0 50 км 4/4 1000 м
[Sc]
-1.4 -2.8 90 -3 -3 1016.3 966.4
21 20.09 штиль 0 50 км 10/10 1000 м
[Sc]
-0.5 -2.0 90 -2 -2 1016.4 966.7 -2.0
00 21.09 штиль 0 50 км 10/10 1000 м
[Sc]
+1.7 -1.4 80 +1 +1 1016.6 967.2
03 21.09 СЗ 1 50 км 8/8 1000 м
[Sc]
+7.3 -1.8 52 +7 +8 1014.9 966.7
06 21.09 С 2 50 км 8/6 1000 м
[Sc Ci fib]
+9.0 -2.4 45 +8 +9 1014.4 966.5
09 21.09 штиль 0 50 км 4/1 1000 м
[Sc Ci fib]
+7.7 -3.7 44 +8 +8 1015.3 967.0 +9.2
12 21.09 СЗ 1 50 км 4/3 1000 м
[Sc Ci fib]
-0.6 -4.4 75 -2 -2 1018.5 968.7
15 21.09 штиль 0 50 км 3/3 1000 м
[Sc]
-3.2 -4.3 92 -4 -4 1019.1 968.8
18 21.09 штиль 0 50 км 6/6 1000 м
[Sc]
-3.1 -4.1 93 -4 -4 1019.2 968.9
21 21.09 штиль 0 50 км 6/4 1000 м
[Sc Ac trans]
-6.6 -7.4 94 -8 -8 1019.7 968.8 -6.7
00 22.09 С 2 50 км 6/0
[Ac trans Ci fib]
-1.0 -2.9 87 -5 -4 1019.1 969.0 -6.8
03 22.09 ЮВ 1 50 км 3/0
[Ci fib]
+5.2 -4.1 51 +5 +9 1015.8 967.1
06 22.09 Ю 4
{10}
50 км 10/3 1000 м
[Sc Ac und]
+8.2 -3.3 44 +6 +6 1012.6 964.7
09 22.09 ЮВ 3
{10}
50 км 9/6 600 м
[Cb cap Ac trans]
+4.8 -0.5 69 +2 +2 1013.5 964.8 +9.5
12 22.09 Ю 3 50 км 10/10 1000 м
[Sc]
+3.2 +0.3 81 -1 -1 1013.6 964.8
15 22.09 Ю 2 50 км 10/10 1000 м
[Sc]
+2.2 +0.3 87 -1 -1 1012.7 963.7
18 22.09 ЮВ 2 10 км слабый дождь со снегом 10/10 1000 м
[Sc]
+1.2 +0.7 96 -2 -2 1011.9 962.8
21 22.09 ЮВ 2 50 км {дождь} 10/10 300 м
[Frnb]
+1.0 +0.5 96 -3 -3 1011.3 962.2 +0.8 0.8
00 23.09 ЮВ 1 50 км {дождь} 10/10 300 м
[Frnb]
+1.8 +1.3 96 -0 -0 1011.2 962.3
03 23.09 ЮВ 2 50 км 10/10 300 м
[Frnb]
+3.3 +1.5 88 0 0 1010.9 962.2
06 23.09 ЮВ 1 50 км 9/8 600 м
[Cb cap Ac trans]
+4.7 +1.7 81 +3 +4 1010.6 962.0
09 23.09 штиль 0 50 км 8/5 1000 м
[Sc Ac trans]
+5.0 +1.7 79 +4 +4 1010.5 962.1 +5.6
12 23.09 штиль 0 50 км 8/5 1000 м
[Sc Ac trans]
+0.6 -1.1 88 -1 -1 1013.7 964.3
15 23.09 штиль 0 50 км 6/3 1000 м
[Sc Ac trans]
-1.6 -2.7 92 -3 -3 1014.5 964.8
18 23.09 штиль 0 50 км 8/8 1000 м
[Sc]
-1.9 -4.3 84 -3 -3 1015.8 965.8
21 23.09 С 1 50 км 10/10 1000 м
[Sc]
-2.8 -4.8 86 -5 -5 1016.3 966.3 -3.0
00 24.09 С 1 50 км 9/9 1000 м
[Sc]
-1.5 -4.2 82 -4 -3 1017.0 967.0
03 24.09 СВ 2 50 км 3/3 1000 м
[Sc Ci fib]
+5.6 -2.4 56 +4 +6 1014.0 966.4
06 24.09 штиль 0 50 км 9/8 1000 м
[Sc Ci fib]
+6.2 -3.0 52 +6 +6 1014.2 965.8
09 24.09 штиль 0 50 км 6/0
[Ac trans Ci fib]
+4.4 -4.9 51 +4 +4 1014.4 965.6 +7.7
12 24.09 ЮВ 1 50 км 6/3 1000 м
[Sc Ci fib]
+2.7 -5.4 55 +2 +2 1014.9 965.8
15 24.09 Ю 2 50 км 10/3 1000 м
[Sc As trans]
+2.8 -1.7 72 0 0 1015.0 965.9
18 24.09 Ю 2 50 км 10/10 1000 м
[Sc]
+2.8 -1.4 74 -0 -0 1014.7 965.6
21 24.09 Ю 3 50 км 10/8 1000 м
[Sc Ac und]
+1.9 -1.5 78 -2 -2 1014.5 965.4 +1.5
00 25.09 Ю 4
{11}
50 км 10/4 1000 м
[Sc Ac und]
+2.6 -1.3 75 -2 -2 1015.1 966.0
03 25.09 ЮЗ 4
{11}
50 км 10/4 1000 м
[Sc Ac und]
+4.2 -1.0 69 0 +1 1014.6 965.8
06 25.09 Ю 3
{10}
50 км 10/0
[Ac und]
+5.6 -0.8 63 +3 +3 1013.9 965.3
09 25.09 ЮЗ 4
{11}
50 км 10/0
[Ac und]
+4.0 -0.9 70 -0 -0 1014.4 965.6 +6.2
12 25.09 Ю 2 50 км 10/3 1000 м
[Sc Ac und]
+3.2 -0.9 74 0 0 1015.3 966.4
15 25.09 Ю 1 50 км 10/4 1000 м
[Sc Ac und]
+2.7 -1.5 74 1015.5 966.3
18 25.09 Ю 2 50 км 10/4 1000 м
[Sc Ac und]
+1.9 -2.1 75 -1 -1 1014.9 965.6
21 25.09 Ю 3 50 км 10/6 1000 м
[Sc Ac und]
+2.7 +0.6 86 -1 -1 1013.7 964.7 +1.7
00 26.09 штиль 0 50 км 9/5 1000 м
[Sc Ac trans]
+2.0 -0.2 85 +1 +1 1013.8 964.8
03 26.09 Ю 1 50 км 10/6 1000 м
[Sc Ac und]
+5.1 +1.3 76 +4 +5 1012.4 963.9

 

Местоположение метеостанции Томпо (Якутия, Россия): широта 63.95 долгота 135.80 высота над уровнем моря 402 м.

В архиве по умолчанию представлена погода в Томпо за последнюю неделю. Архивные данные за месяц целиком и за предыдущие месяцы, начиная с января 2011 года, Вы можете получить, выбрав интересующий диапазон дат из раскрывающегося списка и нажав кнопку "Ввод!".


*Определитесь, кто Вы:
робот инопланетянин человек

Внимание! Время в таблицах - всемирное. Для получения местного времени необходимо прибавить поправку, которая в Томпо равна 9 ч.

Смотрите также архив погоды в соседних городах и на ближайших метеорологических станциях:

Погода в Теплом Ключе (Якутия, Россия) (139 км)
Погода в Крест-Хальджае (Якутия, Россия) (144 км)
Погода в Иэме (Якутия, Россия) (150 км)
Погода в Верхоянском Перевозе (Якутия, Россия) (200 км)
Погода в Восточной (Якутия, Россия) (204 км)
Погода в Ытык-Кюёле (Якутия, Россия) (210 км)
Погода в Охотском Перевозе (Якутия, Россия) (232 км)
Погода в Чурапче (Якутия, Россия) (268 км)
Погода в Сеген-Кюели (Якутия, Россия) (268 км)
Погода в Юртах (Якутия, Россия) (293 км)

Пояснения к столбцам:

Ветер - указаны скорость ветра в м/с - средняя за 10 мин, порывы в срок и между сроками (в фигурных скобках) и направление, откуда дует ветер: С - северный, СВ - северо-восточный, В - восточный, ЮВ - юго-восточный, Ю - южный, ЮЗ - юго-западный, З - западный, СЗ - северо-западный.
Видимость - горизонтальная дальность видимости в метрах или километрах. При видимости от 1 до 10 км при отсутствии осадков обычно наблюдается дымка, при ухудшении видимости до 1 км и менее - туман. В сухую погоду видимость может ухудшаться дымом, пылью или мглою.
Явления - указаны атмосферные явления, наблюдавшиеся в срок или в последний час перед сроком; фигурными скобками обозначены явления, наблюдавшиеся между сроками (за 1-3 часа до срока); квадратными скобками обозначены град или гололедные отложения с указанием их диаметра в мм.
Облачность - указаны через наклонную черту общая и нижняя облачность в баллах и высота нижней границы облаков в метрах; квадратными скобками обозначены формы облаков: Ci - перистые, Cs - перисто-слоистые, Cc - перисто-кучевые, Ac - высококучевые, As - высокослоистые, Sc - слоисто-кучевые, Ns - слоисто-дождевые, Cu - кучевые, Cb - кучево-дождевые. Подробнее классификацию облаков см. в Атласе облаков (PDF).
T - Температура воздуха - температура, измеренная на высоте 2 м над землей.
Td - Температура точки росы - температура, при понижении до которой содержащийся в воздухе водяной пар достигнет насыщения.
f - Относительная влажность воздуха - влажноcть воздуха, измеренная на высоте 2 м над землей.
Te - Эффективная температура - температура, которую ощущает одетый по сезону человек в тени. Характеристика душности погоды. При расчете учитывается влияние влажности воздуха и скорости ветра на теплоощущения человека.
Tes - Эффективная температура на солнце - температура, которую ощущает человек, с поправкой на солнечный нагрев. Характеристика знойности погоды. Зависит от высоты солнца над горизонтом, облачности и скорости ветра. Ночью, в пасмурную погоду, а также при ветре 12 м/с и более поправка равна нулю.
P - Атмосферное давление - приведенное к уровню моря атмосферное давление.
Po - Атмосферное давление - измеренное на уровне метеостанции атмосферное давление.
Tmin - Минимальная температура - минимум температуры воздуха на высоте 2 м над землей.
Tmax - Максимальная температура - максимум температуры воздуха на высоте 2 м над землей.
R - Количество осадков - Количество выпавших осадков за период времени, мм. При наведении курсора мыши на число - период времени, за который выпало указанное количество осадков.
R24 - Количество осадков - Количество выпавших осадков за 24 часа, мм.
S - Снежный покров - Высота снежного покрова, см. При наведении курсора мыши на число - состояние снежного покрова и степень покрытия местности в баллах.